| time (UTC) | temp C | wind direction | speed KPH | gust KPH | rain 1hr cm | rain 24hr cm | rain mn cm | humidity % | barometer mb |
| 20260831230925 | 36 | 148 | 4.8 | 17.7 | 0.00 | 0.00 | 0.00 | 33 | 1010.0 |
| 20260831230004 | 36 | 135 | 4.8 | 11.3 | 0.00 | 0.00 | 0.00 | 33 | 1010.0 |
| 20260831225404 | 37 | 142 | 6.4 | 17.7 | 0.00 | 0.00 | 0.00 | 32 | 1010.0 |
| 20260831224503 | 37 | 146 | 8.0 | 17.7 | 0.00 | 0.00 | 0.00 | 32 | 1010.1 |
| 20260831223604 | 37 | 165 | 4.8 | 11.3 | 0.00 | 0.00 | 0.00 | 31 | 1010.1 |
| 20260831222703 | 37 | 158 | 6.4 | 12.9 | 0.00 | 0.00 | 0.00 | 31 | 1010.1 |
| 20260831221804 | 38 | 158 | 6.4 | 17.7 | 0.00 | 0.00 | 0.00 | 30 | 1010.2 |
| 20260831220904 | 38 | 139 | 3.2 | 11.3 | 0.00 | 0.00 | 0.00 | 30 | 1010.2 |
| 20260831220004 | 38 | 153 | 4.8 | 16.1 | 0.00 | 0.00 | 0.00 | 31 | 1010.2 |
| 20260831215403 | 38 | 162 | 6.4 | 25.7 | 0.00 | 0.00 | 0.00 | 31 | 1010.4 |
| 20260831214524 | 38 | 150 | 6.4 | 16.1 | 0.00 | 0.00 | 0.00 | 32 | 1010.4 |
| 20260831213604 | 38 | 157 | 8.0 | 22.5 | 0.00 | 0.00 | 0.00 | 31 | 1010.6 |
| 20260831212703 | 38 | 171 | 6.4 | 16.1 | 0.00 | 0.00 | 0.00 | 32 | 1010.5 |
| 20260831211825 | 37 | 165 | 6.4 | 16.1 | 0.00 | 0.00 | 0.00 | 32 | 1010.7 |
| 20260831210903 | 37 | 161 | 4.8 | 16.1 | 0.00 | 0.00 | 0.00 | 33 | 1010.8 |
| 20260831210024 | 37 | 148 | 8.0 | 16.1 | 0.00 | 0.00 | 0.00 | 33 | 1010.9 |
| 20260831205404 | 38 | 142 | 6.4 | 16.1 | 0.00 | 0.00 | 0.00 | 32 | 1011.0 |
| 20260831204503 | 37 | 139 | 8.0 | 14.5 | 0.00 | 0.00 | 0.00 | 33 | 1011.2 |
| 20260831203603 | 37 | 167 | 4.8 | 12.9 | 0.00 | 0.00 | 0.00 | 34 | 1011.4 |
| 20260831202704 | 36 | 168 | 6.4 | 16.1 | 0.00 | 0.00 | 0.00 | 34 | 1011.5 |
| 20260831201803 | 37 | 157 | 9.7 | 19.3 | 0.00 | 0.00 | 0.00 | 33 | 1011.6 |
| 20260831200903 | 38 | 158 | 11.3 | 25.7 | 0.00 | 0.00 | 0.00 | 33 | 1011.7 |
| 20260831200003 | 38 | 167 | 8.0 | 20.9 | 0.00 | 0.00 | 0.00 | 34 | 1011.8 |
| 20260831195403 | 38 | 166 | 9.7 | 22.5 | 0.00 | 0.00 | 0.00 | 32 | 1011.8 |
| 20260831194503 | 37 | 163 | 8.0 | 20.9 | 0.00 | 0.00 | 0.00 | 34 | 1011.9 |
| 20260831193604 | 36 | 154 | 8.0 | 19.3 | 0.00 | 0.00 | 0.00 | 37 | 1012.0 |
| 20260831192724 | 36 | 154 | 9.7 | 16.1 | 0.00 | 0.00 | 0.00 | 36 | 1012.1 |
| 20260831191804 | 37 | 160 | 8.0 | 16.1 | 0.00 | 0.00 | 0.00 | 37 | 1012.2 |
| 20260831190904 | 37 | 157 | 8.0 | 19.3 | 0.00 | 0.00 | 0.00 | 36 | 1012.3 |
| 20260831190003 | 37 | 173 | 9.7 | 22.5 | 0.00 | 0.00 | 0.00 | 35 | 1012.4 |
| 20260831185425 | 37 | 165 | 8.0 | 17.7 | 0.00 | 0.00 | 0.00 | 37 | 1012.4 |
| 20260831184503 | 37 | 164 | 6.4 | 20.9 | 0.00 | 0.00 | 0.00 | 38 | 1012.5 |
| 20260831183604 | 37 | 164 | 9.7 | 19.3 | 0.00 | 0.00 | 0.00 | 39 | 1012.7 |
| 20260831182703 | 37 | 151 | 8.0 | 19.3 | 0.00 | 0.00 | 0.00 | 38 | 1012.8 |
| 20260831181824 | 37 | 158 | 11.3 | 25.7 | 0.00 | 0.00 | 0.00 | 38 | 1012.9 |
| 20260831180924 | 37 | 152 | 8.0 | 25.7 | 0.00 | 0.00 | 0.00 | 38 | 1013.0 |
| 20260831180003 | 36 | 150 | 6.4 | 17.7 | 0.00 | 0.00 | 0.00 | 41 | 1013.2 |
| 20260831175403 | 36 | 161 | 8.0 | 19.3 | 0.00 | 0.00 | 0.00 | 40 | 1013.4 |
| 20260831174503 | 36 | 168 | 9.7 | 19.3 | 0.00 | 0.00 | 0.00 | 41 | 1013.5 |
| 20260831173603 | 36 | 166 | 8.0 | 17.7 | 0.00 | 0.00 | 0.00 | 42 | 1013.7 |
| 20260831172704 | 35 | 193 | 6.4 | 17.7 | 0.00 | 0.00 | 0.00 | 42 | 1013.8 |
| 20260831171804 | 35 | 179 | 8.0 | 19.3 | 0.00 | 0.00 | 0.00 | 41 | 1013.9 |
| 20260831170903 | 35 | 184 | 8.0 | 22.5 | 0.00 | 0.00 | 0.00 | 42 | 1013.9 |
| 20260831170003 | 35 | 177 | 6.4 | 16.1 | 0.00 | 0.00 | 0.00 | 43 | 1014.0 |
| 20260831165404 | 35 | 168 | 8.0 | 19.3 | 0.00 | 0.00 | 0.00 | 43 | 1014.1 |
| 20260831164503 | 34 | 178 | 6.4 | 17.7 | 0.00 | 0.00 | 0.00 | 44 | 1014.1 |
| 20260831163603 | 33 | 184 | 6.4 | 16.1 | 0.00 | 0.00 | 0.00 | 45 | 1014.0 |
| 20260831162704 | 33 | 193 | 8.0 | 19.3 | 0.00 | 0.00 | 0.00 | 48 | 1014.1 |
| 20260831161803 | 33 | 170 | 6.4 | 19.3 | 0.00 | 0.00 | 0.00 | 49 | 1014.0 |
| 20260831160904 | 32 | 166 | 6.4 | 16.1 | 0.00 | 0.00 | 0.00 | 51 | 1014.1 |
| 20260831160004 | 32 | 181 | 4.8 | 14.5 | 0.00 | 0.00 | 0.00 | 53 | 1014.0 |
| 20260831155403 | 31 | 179 | 4.8 | 12.9 | 0.00 | 0.00 | 0.00 | 56 | 1014.0 |
| 20260831154503 | 31 | 183 | 6.4 | 16.1 | 0.00 | 0.00 | 0.00 | 58 | 1014.0 |
| 20260831153624 | 30 | 195 | 8.0 | 16.1 | 0.00 | 0.00 | 0.00 | 58 | 1013.9 |
| 20260831152703 | 30 | 183 | 8.0 | 16.1 | 0.00 | 0.00 | 0.00 | 60 | 1013.9 |
| 20260831151803 | 30 | 189 | 8.0 | 14.5 | 0.00 | 0.00 | 0.00 | 62 | 1014.0 |
| 20260831150924 | 30 | 172 | 8.0 | 19.3 | 0.00 | 0.00 | 0.00 | 63 | 1013.9 |
| 20260831150003 | 29 | 187 | 6.4 | 16.1 | 0.00 | 0.00 | 0.00 | 66 | 1013.8 |
| 20260831145403 | 28 | 197 | 6.4 | 16.1 | 0.00 | 0.00 | 0.00 | 67 | 1013.8 |
| 20260831144503 | 28 | 189 | 8.0 | 19.3 | 0.00 | 0.00 | 0.00 | 68 | 1013.8 |
| 20260831143603 | 28 | 199 | 9.7 | 19.3 | 0.00 | 0.00 | 0.00 | 69 | 1013.8 |
| 20260831142704 | 28 | 203 | 8.0 | 16.1 | 0.00 | 0.00 | 0.00 | 71 | 1013.7 |
| 20260831141803 | 27 | 203 | 8.0 | 22.5 | 0.00 | 0.00 | 0.00 | 73 | 1013.7 |
| 20260831140903 | 27 | 185 | 6.4 | 16.1 | 0.00 | 0.00 | 0.00 | 75 | 1013.8 |
| 20260831140003 | 26 | 198 | 6.4 | 14.5 | 0.00 | 0.00 | 0.00 | 77 | 1013.7 |
| 20260831135403 | 26 | 196 | 6.4 | 14.5 | 0.00 | 0.00 | 0.00 | 78 | 1013.7 |
| 20260831134503 | 26 | 192 | 6.4 | 16.1 | 0.00 | 0.00 | 0.00 | 80 | 1013.7 |
| 20260831133603 | 26 | 182 | 4.8 | 14.5 | 0.00 | 0.00 | 0.00 | 81 | 1013.6 |
| 20260831132703 | 25 | 167 | 4.8 | 11.3 | 0.00 | 0.00 | 0.00 | 81 | 1013.5 |
| 20260831131824 | 25 | 174 | 4.8 | 9.7 | 0.00 | 0.00 | 0.00 | 82 | 1013.4 |
| 20260831130904 | 25 | 174 | 4.8 | 9.7 | 0.00 | 0.00 | 0.00 | 82 | 1013.2 |
| 20260831130004 | 25 | 178 | 3.2 | 9.7 | 0.00 | 0.00 | 0.00 | 82 | 1013.2 |
| 20260831125403 | 25 | 181 | 3.2 | 11.3 | 0.00 | 0.00 | 0.00 | 82 | 1013.1 |
| 20260831124503 | 24 | 175 | 3.2 | 9.7 | 0.00 | 0.00 | 0.00 | 83 | 1013.0 |
| 20260831123603 | 24 | 176 | 1.6 | 6.4 | 0.00 | 0.00 | 0.00 | 82 | 1012.9 |
| 20260831122703 | 24 | 176 | 1.6 | 6.4 | 0.00 | 0.00 | 0.00 | 81 | 1012.8 |
| 20260831121803 | 24 | 167 | 1.6 | 6.4 | 0.00 | 0.00 | 0.00 | 81 | 1012.7 |
| 20260831120904 | 24 | 172 | 1.6 | 6.4 | 0.00 | 0.00 | 0.00 | 81 | 1012.5 |
| 20260831120024 | 24 | 171 | 1.6 | 8.0 | 0.00 | 0.00 | 0.00 | 80 | 1012.4 |
| 20260831115403 | 24 | 171 | 3.2 | 8.0 | 0.00 | 0.00 | 0.00 | 80 | 1012.5 |
| 20260831114503 | 24 | 169 | 4.8 | 9.7 | 0.00 | 0.00 | 0.00 | 79 | 1012.3 |
| 20260831113603 | 25 | 166 | 3.2 | 9.7 | 0.00 | 0.00 | 0.00 | 79 | 1012.2 |
| 20260831112703 | 25 | 166 | 3.2 | 9.7 | 0.00 | 0.00 | 0.00 | 78 | 1012.1 |
| 20260831111803 | 25 | 164 | 4.8 | 12.9 | 0.00 | 0.00 | 0.00 | 77 | 1012.0 |
| 20260831110903 | 25 | 168 | 3.2 | 8.0 | 0.00 | 0.00 | 0.00 | 77 | 1012.0 |
| 20260831110004 | 25 | 165 | 3.2 | 8.0 | 0.00 | 0.00 | 0.00 | 76 | 1012.0 |
| 20260831105403 | 25 | 168 | 1.6 | 8.0 | 0.00 | 0.00 | 0.00 | 76 | 1012.0 |
| 20260831104504 | 25 | 171 | 1.6 | 9.7 | 0.00 | 0.00 | 0.00 | 75 | 1011.9 |
| 20260831103603 | 25 | 172 | 3.2 | 9.7 | 0.00 | 0.00 | 0.00 | 75 | 1012.0 |
| 20260831102703 | 25 | 175 | 1.6 | 4.8 | 0.00 | 0.00 | 0.00 | 74 | 1011.9 |
| 20260831101803 | 26 | 171 | 1.6 | 6.4 | 0.00 | 0.00 | 0.00 | 73 | 1012.0 |
| 20260831100903 | 26 | 169 | 1.6 | 6.4 | 0.00 | 0.00 | 0.00 | 73 | 1012.0 |
| 20260831100004 | 26 | 166 | 3.2 | 9.7 | 0.00 | 0.00 | 0.00 | 72 | 1011.9 |
| 20260831095403 | 26 | 165 | 3.2 | 9.7 | 0.00 | 0.00 | 0.00 | 72 | 1011.9 |
| 20260831094504 | 26 | 164 | 3.2 | 8.0 | 0.00 | 0.00 | 0.00 | 71 | 1011.8 |
| 20260831093624 | 26 | 168 | 4.8 | 9.7 | 0.00 | 0.00 | 0.00 | 71 | 1011.8 |
| 20260831092703 | 26 | 167 | 3.2 | 11.3 | 0.00 | 0.00 | 0.00 | 70 | 1011.9 |
| 20260831091804 | 26 | 179 | 4.8 | 12.9 | 0.00 | 0.00 | 0.00 | 70 | 1011.8 |
| 20260831090903 | 26 | 181 | 4.8 | 11.3 | 0.00 | 0.00 | 0.00 | 69 | 1011.6 |
| 20260831090004 | 26 | 178 | 4.8 | 12.9 | 0.00 | 0.00 | 0.00 | 68 | 1011.6 |
| 20260831085403 | 27 | 167 | 4.8 | 12.9 | 0.00 | 0.00 | 0.00 | 68 | 1011.6 |
| 20260831084524 | 27 | 170 | 4.8 | 12.9 | 0.00 | 0.00 | 0.00 | 67 | 1011.6 |
| 20260831083603 | 27 | 168 | 6.4 | 12.9 | 0.00 | 0.00 | 0.00 | 67 | 1011.5 |
| 20260831082704 | 27 | 168 | 4.8 | 12.9 | 0.00 | 0.00 | 0.00 | 66 | 1011.5 |
| 20260831081803 | 27 | 172 | 4.8 | 12.9 | 0.00 | 0.00 | 0.00 | 66 | 1011.5 |
| 20260831080903 | 27 | 178 | 4.8 | 12.9 | 0.00 | 0.00 | 0.00 | 65 | 1011.6 |
| 20260831080004 | 27 | 186 | 6.4 | 14.5 | 0.00 | 0.00 | 0.00 | 65 | 1011.5 |
| 20260831075403 | 27 | 186 | 6.4 | 14.5 | 0.00 | 0.00 | 0.00 | 65 | 1011.5 |
| 20260831074525 | 27 | 183 | 4.8 | 12.9 | 0.00 | 0.00 | 0.00 | 64 | 1011.5 |
| 20260831073603 | 27 | 178 | 4.8 | 14.5 | 0.00 | 0.00 | 0.00 | 63 | 1011.5 |
| 20260831072704 | 27 | 181 | 4.8 | 14.5 | 0.00 | 0.00 | 0.00 | 63 | 1011.5 |
| 20260831071824 | 27 | 183 | 4.8 | 12.9 | 0.00 | 0.00 | 0.00 | 62 | 1011.5 |
| 20260831070903 | 27 | 170 | 4.8 | 14.5 | 0.00 | 0.00 | 0.00 | 61 | 1011.5 |
| 20260831070024 | 27 | 170 | 3.2 | 9.7 | 0.00 | 0.00 | 0.00 | 61 | 1011.6 |
| 20260831065403 | 27 | 172 | 4.8 | 9.7 | 0.00 | 0.00 | 0.00 | 60 | 1011.6 |
| 20260831064503 | 27 | 176 | 3.2 | 8.0 | 0.00 | 0.00 | 0.00 | 59 | 1011.7 |
| 20260831063603 | 27 | 177 | 1.6 | 6.4 | 0.00 | 0.00 | 0.00 | 58 | 1011.7 |
| 20260831062703 | 27 | 184 | 1.6 | 6.4 | 0.00 | 0.00 | 0.00 | 58 | 1011.6 |
| 20260831061803 | 27 | 170 | 1.6 | 6.4 | 0.00 | 0.00 | 0.00 | 57 | 1011.5 |
| 20260831060903 | 27 | 162 | 3.2 | 8.0 | 0.00 | 0.00 | 0.00 | 56 | 1011.6 |
| 20260831060024 | 27 | 162 | 3.2 | 9.7 | 0.00 | 0.00 | 0.00 | 55 | 1011.7 |
| 20260831055403 | 27 | 168 | 1.6 | 6.4 | 0.00 | 0.00 | 0.00 | 55 | 1011.6 |
| 20260831054504 | 27 | 169 | 1.6 | 6.4 | 0.00 | 0.00 | 0.00 | 55 | 1011.4 |
| 20260831053603 | 27 | 157 | 1.6 | 6.4 | 0.00 | 0.00 | 0.00 | 54 | 1011.4 |
| 20260831052704 | 28 | 157 | 1.6 | 6.4 | 0.00 | 0.00 | 0.00 | 54 | 1011.4 |
| 20260831051803 | 28 | 167 | 1.6 | 6.4 | 0.00 | 0.00 | 0.00 | 53 | 1011.4 |
| 20260831050904 | 28 | 189 | 0.0 | 3.2 | 0.00 | 0.00 | 0.00 | 52 | 1011.3 |
| 20260831050004 | 28 | 155 | 1.6 | 3.2 | 0.00 | 0.00 | 0.00 | 52 | 1011.2 |
| 20260831045403 | 28 | 158 | 0.0 | 3.2 | 0.00 | 0.00 | 0.00 | 52 | 1011.2 |
| 20260831044504 | 28 | 156 | 0.0 | 3.2 | 0.00 | 0.00 | 0.00 | 51 | 1011.2 |
| 20260831043603 | 28 | 157 | 1.6 | 3.2 | 0.00 | 0.00 | 0.00 | 50 | 1011.1 |
| 20260831042703 | 29 | 154 | 3.2 | 4.8 | 0.00 | 0.00 | 0.00 | 50 | 1011.1 |
| 20260831041803 | 29 | 164 | 1.6 | 4.8 | 0.00 | 0.00 | 0.00 | 50 | 1011.1 |
| 20260831040903 | 29 | 166 | 1.6 | 4.8 | 0.00 | 0.00 | 0.00 | 49 | 1011.1 |
| 20260831040003 | 30 | 166 | 0.0 | 1.6 | 0.00 | 0.00 | 0.00 | 48 | 1011.0 |
| 20260831035403 | 30 | 166 | 0.0 | 1.6 | 0.00 | 0.00 | 0.00 | 47 | 1010.9 |
| 20260831034503 | 30 | 166 | 0.0 | 1.6 | 0.00 | 0.00 | 0.00 | 47 | 1010.8 |
| 20260831033603 | 30 | 166 | 1.6 | 4.8 | 0.00 | 0.00 | 0.00 | 47 | 1010.7 |
| 20260831032724 | 30 | 166 | 1.6 | 4.8 | 0.00 | 0.00 | 0.00 | 46 | 1010.7 |
| 20260831031803 | 31 | 163 | 0.0 | 6.4 | 0.00 | 0.00 | 0.00 | 45 | 1010.7 |
| 20260831030924 | 31 | 155 | 3.2 | 6.4 | 0.00 | 0.00 | 0.00 | 45 | 1010.6 |
| 20260831030003 | 31 | 157 | 1.6 | 4.8 | 0.00 | 0.00 | 0.00 | 44 | 1010.5 |
| 20260831025403 | 31 | 157 | 1.6 | 4.8 | 0.00 | 0.00 | 0.00 | 44 | 1010.5 |
| 20260831024503 | 31 | 157 | 1.6 | 6.4 | 0.00 | 0.00 | 0.00 | 43 | 1010.3 |
| 20260831023603 | 31 | 156 | 3.2 | 9.7 | 0.00 | 0.00 | 0.00 | 43 | 1010.2 |
| 20260831022704 | 31 | 162 | 1.6 | 9.7 | 0.00 | 0.00 | 0.00 | 43 | 1010.1 |
| 20260831021803 | 32 | 151 | 1.6 | 6.4 | 0.00 | 0.00 | 0.00 | 42 | 1010.0 |
| 20260831020903 | 32 | 150 | 1.6 | 4.8 | 0.00 | 0.00 | 0.00 | 42 | 1009.9 |
| 20260831020003 | 32 | 0 | 0.0 | 0.0 | 0.00 | 0.00 | 0.00 | 41 | 1009.8 |
| 20260831015404 | 32 | 0 | 0.0 | 0.0 | 0.00 | 0.00 | 0.00 | 40 | 1009.7 |
| 20260831014503 | 33 | 0 | 0.0 | 0.0 | 0.00 | 0.00 | 0.00 | 39 | 1009.5 |
| 20260831013603 | 33 | 151 | 1.6 | 8.0 | 0.00 | 0.00 | 0.00 | 39 | 1009.4 |
| 20260831012704 | 33 | 158 | 0.0 | 8.0 | 0.00 | 0.00 | 0.00 | 38 | 1009.4 |
| 20260831011803 | 33 | 164 | 0.0 | 6.4 | 0.00 | 0.00 | 0.00 | 38 | 1009.3 |
| 20260831010924 | 34 | 163 | 3.2 | 6.4 | 0.00 | 0.00 | 0.00 | 37 | 1009.3 |
| 20260831010003 | 34 | 161 | 3.2 | 9.7 | 0.00 | 0.00 | 0.00 | 36 | 1009.2 |
| 20260831005403 | 34 | 161 | 4.8 | 11.3 | 0.00 | 0.00 | 0.00 | 36 | 1009.2 |
| 20260831004504 | 35 | 165 | 4.8 | 14.5 | 0.00 | 0.00 | 0.00 | 35 | 1009.1 |
| 20260831003625 | 35 | 165 | 4.8 | 14.5 | 0.00 | 0.00 | 0.00 | 34 | 1009.1 |
| 20260831002704 | 35 | 157 | 6.4 | 17.7 | 0.00 | 0.00 | 0.00 | 34 | 1009.1 |
| 20260831001826 | 36 | 160 | 6.4 | 17.7 | 0.00 | 0.00 | 0.00 | 34 | 1009.1 |
| 20260831000904 | 36 | 154 | 4.8 | 12.9 | 0.00 | 0.00 | 0.00 | 33 | 1009.1 |
| 20260831000004 | 36 | 169 | 8.0 | 17.7 | 0.00 | 0.00 | 0.00 | 32 | 1009.2 |
| 20260830235404 | 36 | 166 | 8.0 | 16.1 | 0.00 | 0.00 | 0.00 | 32 | 1009.2 |
| 20260830234504 | 37 | 155 | 6.4 | 17.7 | 0.00 | 0.00 | 0.00 | 31 | 1009.2 |
| 20260830233604 | 37 | 160 | 8.0 | 17.7 | 0.00 | 0.00 | 0.00 | 31 | 1009.2 |
| 20260830232705 | 37 | 158 | 8.0 | 17.7 | 0.00 | 0.00 | 0.00 | 30 | 1009.4 |
| 20260830231804 | 37 | 155 | 6.4 | 16.1 | 0.00 | 0.00 | 0.00 | 30 | 1009.2 |